Regional Weather Roundup
Issued by NWS Midland/Odessa, TX

Home | Current Version | Previous Version | Text Only | Print | Product List | Glossary On
Versions: 1 2 3 4 5 6 7 8 9 10 11 12 13 14 15 16 17 18 19 20 21 22 23 24 25 26 27 28 29 30 31 32 33 34 35 36 37 38 39 40 41 42 43 44 45 46 47 48 49 50
000
ASUS44 KMAF 201610
RWRMAF
MIDLAND AREA WEATHER ROUNDUP
NATIONAL WEATHER SERVICE MIDLAND TX
1100 AM CDT FRI OCT 20 2017

...IN SOUTHWEST TEXAS AND SOUTHEAST NEW MEXICO...

CITY           SKY/WX    TMP DP  RH WIND       PRES   REMARKS
ALPINE         MOSUNNY   66  49  53 SW10      30.15S
ANDREWS        FAIR      68  56  66 SW12G18   30.03S
ARTESIA        CLOUDY    66  57  72 SE15      30.00S
BIG SPRING     SUNNY     69  60  73 S16G24    30.03R
CARLSBAD       CLOUDY    67  58  72 S13       29.99S
DRYDEN           N/A     69  61  75 E6        30.02F
FORT STOCKTON  SUNNY     67  58  72 S16G23    30.03F
GUAD PASS      CLOUDY    59  52  77 SW10      30.12R
HOBBS          MOSUNNY   63  57  82 S16G23    30.02F
LAMESA         FAIR      68  57  68 SW20G28   30.02R
MARFA          CLOUDY    60  52  74 S5        30.15R
MIDLAND AIRPK  SUNNY     71  58  61 S16G22    30.02S
MIDLAND INTL   SUNNY     71  57  61 SW18      30.02R
ODESSA         NOT AVBL
PECOS          SUNNY     69  58  68 SE10      30.00S
PRESIDIO       FAIR      71  51  49 NE7       30.06S
SEMINOLE       SUNNY     65  55  72 S15       30.04R
SNYDER         MOSUNNY   68  61  79 S18G26    29.99F
WINK           SUNNY     69  57  65 S14       30.00F
$$
...OTHER STATIONS IN TEXAS...

CITY           SKY/WX    TMP DP  RH WIND       PRES   REMARKS
ABILENE        MOSUNNY   69  63  81 S15       30.01F
AMARILLO       CLOUDY    65  54  67 S23G32    29.95F
AUSTIN         CLOUDY    69  67  93 NW3       30.07R
BROWNSVILLE    SUNNY     85  73  67 SE8       30.01F
CORPUS CHRISTI PTSUNNY   79  74  84 CALM      30.02F
DALLAS FTW     PTSUNNY   73  60  63 S7        30.08F
DEL RIO        CLOUDY    71  68  90 SE12G18   30.02S
EL PASO        PTSUNNY   62  53  72 S7        30.04R
HOUSTON INT    PTSUNNY   78  71  79 E13       30.05F
LUBBOCK        PTSUNNY   66  55  67 S13       30.00S
SAN ANGELO     MOSUNNY   72  61  68 S9        30.03S
SAN ANTONIO    LGT RAIN  72  66  81 CALM      30.07R
WACO           CLOUDY    71  61  70 CALM      30.09R
WICHITA FALLS  MOSUNNY   70  60  70 S26G36    29.96F
$$
...OTHER LOCATIONS IN NEW MEXICO...

CITY           SKY/WX    TMP DP  RH WIND       PRES   REMARKS
ALAMOGORDO     CLOUDY    57  52  82 N5        30.08S
ALBUQUERQUE    CLOUDY    56  49  77 S10       30.04S
CANNON AFB     SUNNY     64  59  82 SW20      29.99F
CLOVIS         MOSUNNY   63  54  72 SW14G21   29.98F
HOLLOMAN AFB   CLOUDY    61  61 100 CALM      30.08R
ROSWELL        CLOUDY    65  56  72 S15       30.00R
RUIDOSO        CLOUDY    59  45  58 SW13      30.13F
SANTA FE       CLOUDY    54  47  77 W7        30.06S
TRUTH OR CONSE SUNNY     59  52  77 CALM      30.06R
TUCUMCARI      CLOUDY    67  52  58 SW24G30   29.90S
$$



USA.gov is the U.S. government's official web portal to all federal, state and local government web resources and services.